Tracking 22842 objects as of 15-Apr-2021
HD Live streaming from Space Station
objects crossing your sky now

OV3-3

Track OV3-3 now!
10-day predictions
OV3-3 is classified as:


NORAD ID: 2389
Int'l Code: 1966-070A
Perigee: 346.8 km
Apogee: 2,225.1 km
Inclination: 81.4 °
Period: 111.1 minutes
Semi major axis: 7656 km
RCS: 0.7052 m2 (medium)
Launch date: August 4, 1966
Source: United States (US)
Launch site: AIR FORCE WESTERN TEST RANGE (AFWTR)
aabbcc
Your satellite tracking list
Your tracking list is empty




NASA's NSSDC Master Catalog

Two Line Element Set (TLE):
1  2389U 66070A   21105.16189944  .00002741  00000-0  14870-3 0  9999
2  2389  81.3810 118.6745 1226555 165.4202 198.5942 12.95743795350483
Source of the keplerian elements: AFSPC